| time (UTC) | temp C | wind direction | speed KPH | gust KPH | rain 1hr cm | rain 24hr cm | rain mn cm | humidity % | barometer mb |
| 20260505035521 | 16 | 0.0 | 1.6 | 0.00 | 0.00 | 0.00 | 57 | 1016.5 | |
| 20260505034611 | 17 | 0.0 | 1.6 | 0.00 | 0.00 | 0.00 | 53 | 1016.3 | |
| 20260505033546 | 17 | 0.0 | 1.6 | 0.00 | 0.00 | 0.00 | 53 | 1016.0 | |
| 20260505032521 | 17 | 0.0 | 1.6 | 0.00 | 0.00 | 0.00 | 51 | 1016.2 | |
| 20260505031521 | 17 | 0.0 | 0.0 | 0.00 | 0.00 | 0.00 | 51 | 1016.5 | |
| 20260505030521 | 17 | 0.0 | 1.6 | 0.00 | 0.00 | 0.00 | 51 | 1016.4 | |
| 20260505025521 | 17 | 0.0 | 1.6 | 0.00 | 0.00 | 0.00 | 51 | 1016.5 | |
| 20260505024520 | 17 | 0.0 | 1.6 | 0.00 | 0.00 | 0.00 | 51 | 1016.5 | |
| 20260505023521 | 17 | 0.0 | 1.6 | 0.00 | 0.00 | 0.00 | 51 | 1016.2 | |
| 20260505022521 | 17 | 0.0 | 3.2 | 0.00 | 0.00 | 0.00 | 51 | 1016.2 | |
| 20260505021611 | 17 | 0.0 | 1.6 | 0.00 | 0.00 | 0.00 | 52 | 1016.1 | |
| 20260505020521 | 17 | 0.0 | 1.6 | 0.00 | 0.00 | 0.00 | 53 | 1015.7 | |
| 20260505015521 | 17 | 0.0 | 1.6 | 0.00 | 0.00 | 0.00 | 55 | 1015.7 | |
| 20260505014521 | 17 | 0.0 | 0.0 | 0.00 | 0.00 | 0.00 | 54 | 1015.6 | |
| 20260505013520 | 17 | 0.0 | 1.6 | 0.00 | 0.00 | 0.00 | 55 | 1015.2 | |
| 20260505012521 | 17 | 0.0 | 1.6 | 0.00 | 0.00 | 0.00 | 54 | 1014.9 | |
| 20260505011521 | 18 | 0.0 | 1.6 | 0.00 | 0.00 | 0.00 | 53 | 1014.9 | |
| 20260505010611 | 18 | 0.0 | 1.6 | 0.00 | 0.00 | 0.00 | 52 | 1014.7 | |
| 20260505005520 | 18 | 0.0 | 1.6 | 0.00 | 0.00 | 0.00 | 52 | 1014.7 | |
| 20260505004521 | 18 | 0.0 | 1.6 | 0.00 | 0.00 | 0.00 | 51 | 1014.5 | |
| 20260505003521 | 19 | 0.0 | 0.0 | 0.00 | 0.00 | 0.00 | 50 | 1014.1 | |
| 20260505002521 | 20 | 0.0 | 0.0 | 0.00 | 0.00 | 0.00 | 49 | 1014.0 | |
| 20260505001520 | 20 | 0.0 | 1.6 | 0.00 | 0.00 | 0.00 | 47 | 1014.0 | |
| 20260505000520 | 20 | 0.0 | 0.0 | 0.00 | 0.00 | 0.00 | 46 | 1013.8 | |
| 20260504235521 | 21 | 0.0 | 1.6 | 0.00 | 0.00 | 0.00 | 44 | 1013.8 | |
| 20260504234520 | 21 | 0.0 | 1.6 | 0.00 | 0.00 | 0.00 | 44 | 1013.6 | |
| 20260504233520 | 21 | 0.0 | 4.8 | 0.00 | 0.00 | 0.00 | 44 | 1013.8 | |
| 20260504232520 | 21 | 0.0 | 3.2 | 0.00 | 0.00 | 0.00 | 43 | 1013.7 | |
| 20260504231520 | 21 | 0.0 | 6.4 | 0.00 | 0.00 | 0.00 | 43 | 1013.7 | |
| 20260504230520 | 21 | 0.0 | 3.2 | 0.00 | 0.00 | 0.00 | 43 | 1013.6 | |
| 20260504225520 | 21 | 0.0 | 4.8 | 0.00 | 0.00 | 0.00 | 42 | 1013.5 | |
| 20260504224520 | 22 | 135 | 1.6 | 4.8 | 0.00 | 0.00 | 0.00 | 42 | 1013.6 |
| 20260504223520 | 22 | 135 | 1.6 | 6.4 | 0.00 | 0.00 | 0.00 | 41 | 1013.6 |
| 20260504222546 | 22 | 113 | 1.6 | 8.0 | 0.00 | 0.00 | 0.00 | 40 | 1013.7 |
| 20260504221520 | 22 | 338 | 1.6 | 3.2 | 0.00 | 0.00 | 0.00 | 39 | 1013.8 |
| 20260504220520 | 23 | 135 | 1.6 | 6.4 | 0.00 | 0.00 | 0.00 | 39 | 1013.8 |
| 20260504215520 | 23 | 135 | 1.6 | 4.8 | 0.00 | 0.00 | 0.00 | 39 | 1013.8 |
| 20260504214520 | 23 | 113 | 3.2 | 8.0 | 0.00 | 0.00 | 0.00 | 38 | 1013.8 |
| 20260504213521 | 23 | 135 | 1.6 | 6.4 | 0.00 | 0.00 | 0.00 | 36 | 1014.0 |
| 20260504212522 | 24 | 113 | 3.2 | 6.4 | 0.00 | 0.00 | 0.00 | 35 | 1014.2 |
| 20260504211637 | 24 | 0.0 | 3.2 | 0.00 | 0.00 | 0.00 | 34 | 1014.3 | |
| 20260504210522 | 25 | 113 | 1.6 | 4.8 | 0.00 | 0.00 | 0.00 | 31 | 1014.2 |
| 20260504205522 | 25 | 113 | 1.6 | 3.2 | 0.00 | 0.00 | 0.00 | 31 | 1014.3 |
| 20260504204522 | 26 | 135 | 1.6 | 4.8 | 0.00 | 0.00 | 0.00 | 30 | 1014.4 |
| 20260504203522 | 26 | 135 | 1.6 | 4.8 | 0.00 | 0.00 | 0.00 | 29 | 1014.5 |
| 20260504202522 | 26 | 135 | 1.6 | 3.2 | 0.00 | 0.00 | 0.00 | 30 | 1014.8 |
| 20260504201522 | 26 | 135 | 1.6 | 4.8 | 0.00 | 0.00 | 0.00 | 29 | 1015.1 |
| 20260504200522 | 26 | 158 | 1.6 | 6.4 | 0.00 | 0.00 | 0.00 | 28 | 1015.2 |
| 20260504195612 | 27 | 203 | 1.6 | 1.6 | 0.00 | 0.00 | 0.00 | 28 | 1015.5 |
| 20260504194522 | 27 | 0.0 | 1.6 | 0.00 | 0.00 | 0.00 | 25 | 1015.6 | |
| 20260504193522 | 27 | 0.0 | 1.6 | 0.00 | 0.00 | 0.00 | 30 | 1015.8 | |
| 20260504192522 | 26 | 0.0 | 1.6 | 0.00 | 0.00 | 0.00 | 29 | 1016.1 | |
| 20260504191547 | 26 | 0 | 1.6 | 4.8 | 0.00 | 0.00 | 0.00 | 32 | 1016.3 |
| 20260504190522 | 26 | 135 | 1.6 | 3.2 | 0.00 | 0.00 | 0.00 | 32 | 1016.5 |
| 20260504185547 | 26 | 45 | 1.6 | 3.2 | 0.00 | 0.00 | 0.00 | 32 | 1016.5 |
| 20260504184522 | 26 | 0.0 | 1.6 | 0.00 | 0.00 | 0.00 | 33 | 1016.7 | |
| 20260504183522 | 26 | 203 | 1.6 | 4.8 | 0.00 | 0.00 | 0.00 | 34 | 1016.8 |
| 20260504182522 | 25 | 23 | 1.6 | 4.8 | 0.00 | 0.00 | 0.00 | 33 | 1016.7 |
| 20260504181522 | 25 | 0 | 1.6 | 4.8 | 0.00 | 0.00 | 0.00 | 35 | 1016.8 |
| 20260504180522 | 24 | 113 | 1.6 | 3.2 | 0.00 | 0.00 | 0.00 | 36 | 1016.9 |
| 20260504175522 | 23 | 0 | 1.6 | 4.8 | 0.00 | 0.00 | 0.00 | 35 | 1016.9 |
| 20260504174522 | 23 | 0.0 | 3.2 | 0.00 | 0.00 | 0.00 | 36 | 1017.0 | |
| 20260504173522 | 23 | 0 | 3.2 | 4.8 | 0.00 | 0.00 | 0.00 | 37 | 1017.0 |
| 20260504172522 | 23 | 23 | 3.2 | 4.8 | 0.00 | 0.00 | 0.00 | 38 | 1017.3 |
| 20260504171547 | 22 | 0 | 3.2 | 4.8 | 0.00 | 0.00 | 0.00 | 39 | 1017.4 |
| 20260504170522 | 22 | 45 | 1.6 | 3.2 | 0.00 | 0.00 | 0.00 | 38 | 1017.7 |
| 20260504150522 | 16 | 0.0 | 1.6 | 0.00 | 0.00 | 0.00 | 48 | 1019.2 | |
| 20260504140521 | 12 | 0.0 | 1.6 | 0.00 | 0.00 | 0.00 | 65 | 1019.3 | |
| 20260504130521 | 8 | 0.0 | 0.0 | 0.00 | 0.00 | 0.00 | 75 | 1018.9 | |
| 20260504110521 | 4 | 0.0 | 0.0 | 0.00 | 0.00 | 0.00 | 86 | 1017.7 | |
| 20260504100521 | 3 | 0.0 | 1.6 | 0.00 | 0.00 | 0.00 | 88 | 1018.2 | |
| 20260504081521 | 5 | 0.0 | 0.0 | 0.00 | 0.00 | 0.00 | 87 | 1018.6 | |
| 20260504080521 | 5 | 0.0 | 0.0 | 0.00 | 0.00 | 0.00 | 87 | 1018.1 | |
| 20260504050521 | 7 | 0.0 | 0.0 | 0.00 | 0.00 | 0.00 | 77 | 1018.4 | |
| 20260504045521 | 7 | 0.0 | 0.0 | 0.00 | 0.00 | 0.00 | 77 | 1018.5 | |
| 20260504044521 | 7 | 0.0 | 0.0 | 0.00 | 0.00 | 0.00 | 76 | 1018.5 | |
| 20260504043546 | 7 | 0.0 | 0.0 | 0.00 | 0.00 | 0.00 | 76 | 1018.0 | |
| 20260504042521 | 7 | 0.0 | 0.0 | 0.00 | 0.00 | 0.00 | 76 | 1017.8 | |
| 20260504041521 | 7 | 0.0 | 1.6 | 0.00 | 0.00 | 0.00 | 77 | 1017.9 | |
| 20260504040521 | 7 | 0.0 | 1.6 | 0.00 | 0.00 | 0.00 | 75 | 1017.9 |